GIA224 WIII-WIEE

Flight info

Callsign GIA224
Flight time N/A
Altitude 36000
Route RIMTI W11 TKG W19 LEBEG
Aircraft B738/M-SDE2E3FGHIRWXY/LB1

Departure

Time 2026-05-04 12:06
Airport Soekarno-Hatta International Airport (WIII)

Arrival

Time N/A
Airport Minangkabau International Airport (WIEE)
Time Latitude Longitude Altitude Speed Heading
2026-05-04 11:50 -6.11845 106.66234 37 ft 0 kts 158°
2026-05-04 11:58 -6.11839 106.66232 37 ft 2 kts 156°
2026-05-04 11:59 -6.11824 106.66226 36 ft 2 kts 158°
2026-05-04 11:59 -6.11809 106.66220 34 ft 2 kts 157°
2026-05-04 11:59 -6.11794 106.66213 33 ft 2 kts 155°
2026-05-04 11:59 -6.11779 106.66206 36 ft 2 kts 152°
2026-05-04 12:00 -6.11764 106.66198 35 ft 2 kts 141°
2026-05-04 12:00 -6.11755 106.66184 35 ft 2 kts 81°
2026-05-04 12:00 -6.11757 106.66178 34 ft 0 kts 69°
2026-05-04 12:02 -6.11607 106.66396 37 ft 15 kts 343°
2026-05-04 12:03 -6.11511 106.66359 37 ft 16 kts 338°
2026-05-04 12:03 -6.11401 106.66315 37 ft 17 kts 338°
2026-05-04 12:03 -6.11311 106.66356 38 ft 16 kts 65°
2026-05-04 12:03 -6.11264 106.66471 38 ft 21 kts 68°
2026-05-04 12:04 -6.11201 106.66627 37 ft 26 kts 68°
2026-05-04 12:04 -6.11136 106.66791 38 ft 24 kts 68°
2026-05-04 12:04 -6.11078 106.66934 36 ft 21 kts 62°
2026-05-04 12:04 -6.10974 106.66964 38 ft 15 kts 332°
2026-05-04 12:05 -6.10932 106.66876 37 ft 14 kts 276°
2026-05-04 12:05 -6.10945 106.66781 37 ft 15 kts 248°
2026-05-04 12:05 -6.11021 106.66591 39 ft 60 kts 248°
2026-05-04 12:05 -6.11272 106.65963 37 ft 131 kts 248°
2026-05-04 12:06 -6.11682 106.64923 104 ft 182 kts 249°
2026-05-04 12:06 -6.12106 106.63754 1047 ft 168 kts 252°
2026-05-04 12:06 -6.12210 106.62566 1656 ft 186 kts 286°
2026-05-04 12:06 -6.11753 106.61235 1965 ft 217 kts 289°
2026-05-04 12:07 -6.11256 106.59712 2201 ft 241 kts 292°
2026-05-04 12:07 -6.10414 106.58227 2737 ft 250 kts 305°
2026-05-04 12:07 -6.09354 106.56753 3212 ft 268 kts 307°
2026-05-04 12:07 -6.08237 106.55254 3933 ft 274 kts 307°
2026-05-04 12:08 -6.07087 106.53707 4784 ft 277 kts 307°
2026-05-04 12:08 -6.05931 106.52137 5600 ft 281 kts 307°
2026-05-04 12:08 -6.04762 106.50532 6387 ft 285 kts 306°
2026-05-04 12:08 -6.03603 106.48930 7130 ft 288 kts 306°
2026-05-04 12:09 -6.02424 106.47290 7887 ft 291 kts 306°
2026-05-04 12:09 -6.01232 106.45627 8655 ft 294 kts 306°
2026-05-04 12:09 -6.00033 106.43948 9410 ft 297 kts 306°
2026-05-04 12:09 -5.98820 106.42248 10114 ft 301 kts 306°
2026-05-04 12:10 -5.97569 106.40491 10439 ft 320 kts 306°
2026-05-04 12:10 -5.96229 106.38609 10612 ft 342 kts 306°
2026-05-04 12:10 -5.94881 106.36716 11005 ft 352 kts 306°
2026-05-04 12:10 -5.93402 106.34635 11625 ft 356 kts 306°
2026-05-04 12:11 -5.91949 106.32592 12277 ft 359 kts 306°
2026-05-04 12:11 -5.90487 106.30535 12893 ft 363 kts 306°
2026-05-04 12:11 -5.89029 106.28484 13482 ft 367 kts 306°
2026-05-04 12:11 -5.87536 106.26384 14027 ft 371 kts 306°
2026-05-04 12:12 -5.86026 106.24260 14570 ft 374 kts 306°
2026-05-04 12:12 -5.84507 106.22125 15120 ft 377 kts 306°
2026-05-04 12:12 -5.82979 106.19975 15658 ft 380 kts 306°
2026-05-04 12:12 -5.81430 106.17798 16174 ft 383 kts 306°
2026-05-04 12:13 -5.79888 106.15631 16699 ft 386 kts 306°
2026-05-04 12:14 -5.68657 105.99851 19932 ft 408 kts 306°
2026-05-04 12:15 -5.67001 105.97525 20367 ft 410 kts 306°
2026-05-04 12:15 -5.65332 105.95182 20793 ft 413 kts 306°
2026-05-04 12:15 -5.63651 105.92822 21208 ft 416 kts 307°
2026-05-04 12:15 -5.61961 105.90449 21615 ft 418 kts 307°
2026-05-04 12:16 -5.60276 105.88083 22007 ft 421 kts 307°
2026-05-04 12:16 -5.58563 105.85679 22409 ft 424 kts 307°